Terug naar catalogus

CZ-6 R/B

ActiefLEO
NORAD 49023·ROCKET BODY·🇨🇳 China

Gelanceerd Jul 9, 2021 vanaf Taiyuan Satellite Launch Center

Loading…

Volgende Passages (komende 24 uur)

TLE

VersSource: Space-Track

Epoch: Sep 14, 2026, 11:37 UTC

1 49023U 21064F   26257.48455627  .00000077  00000-0  63262-4 0  9991
2 49023  44.9982  90.1762 0171584 174.4831 185.7958 14.40296832272750

Volg CZ-6 R/B in realtime met AllMySat

Download on the App Store